[Date Prev][Date Next][Thread Prev][Thread Next] - [Date Index][Thread Index][Author Index]

2 Line ISS Keps 8-27



ISS
1 25544U 98067A   02239.07553241  .00038627  00000-0  49498-3 0   852
2 25544  51.6377  57.2198 0016314 186.9678 316.2095 15.58626035215086


----
Via the sarex mailing list at AMSAT.ORG courtesy of AMSAT-NA.
To unsubscribe, send "unsubscribe sarex" to Majordomo@amsat.org



AMSAT Top AMSAT Home